[[{"header":{"parameterUnit":"m.s-1","parameterCategory":1,"la1":30.2991,"la2":30.254,"lo1":-89.0895,"lo2":-89.0444,"dy":0.0017,"dx":0.0017,"nx":28,"ny":28,"refTime":"2025-12-02T03:00:00:Z","depth":0,"parameterNumber":2,"parameterNumberName":"U-component_of_WINDS"},"data":[0,0,0,0,0,0,0,0,0,0,0,0,0,0,0,0,0,0,0,0,0,0,0,0,0,0,0,0,0,0,0,0,0,0,0,0,0,0,0,0,0,0,0,0,0,0,0,0,0,0,0,0,0,0,0,0,0,0,-3.0253,-3.0253,0,-3.0251,-3.0251,-3.0251,-3.0184,-3.0183,-3.0181,-3.0179,-3.0178,-3.018,-3.0181,0,0,0,0,0,0,0,0,0,0,0,0,0,-3.0201,-3.0202,-3.0253,-3.0253,-3.0253,-3.0251,-3.0251,-3.0251,-3.0185,-3.0183,-3.018,-3.0178,-3.0178,-3.0179,-3.0181,0,0,0,0,0,0,0,0,0,0,0,0,0,-3.0214,-3.0203,-3.0253,-3.022,-3.0217,-3.0251,-3.0251,-3.0251,-3.0185,-3.0182,-3.018,-3.0177,-3.0177,-3.0179,-3.0182,-3.0248,0,0,-3.0189,-3.019,0,0,0,0,0,0,0,0,-3.0213,-3.0216,-3.0225,-3.0222,-3.0219,-3.0215,-3.0232,-3.025,-3.0186,-3.0197,-3.0179,-3.0176,-3.0193,-3.0193,-3.0199,-3.0248,-3.0248,-3.0189,-3.019,-3.0191,-3.0192,0,0,0,0,0,0,0,-3.0212,-3.0215,-3.0252,-3.0225,-3.0221,-3.0205,-3.0204,-3.0235,-3.0209,-3.0196,-3.0191,-3.0192,-3.019,-3.0197,-3.0198,-3.0248,-3.0189,-3.0191,-3.0192,-3.0193,-3.035,-3.0353,0,0,0,0,0,0,-3.0216,-3.0215,-3.0252,-3.0252,-3.0209,-3.0208,-3.0207,-3.0219,-3.0209,-3.0205,-3.0194,-3.0189,-3.0194,-3.0196,-3.0198,-3.0274,-3.0191,-3.0194,-3.0195,-3.0347,-3.0351,-3.0354,0,0,0,0,0,0,-3.0215,-3.022,-3.0252,-3.0232,-3.0235,-3.0212,-3.0226,-3.022,-3.0226,-3.0207,-3.0202,-3.0205,-3.0192,-3.0195,-3.0236,-3.0273,-3.0195,-3.0197,-3.0344,-3.0348,-3.0352,-3.0428,0,0,0,0,0,0,-3.0214,-3.022,-3.0245,-3.0233,-3.0237,-3.029,-3.0228,-3.0222,-3.023,-3.0224,-3.0216,-3.0213,-3.019,-3.0232,-3.0238,-3.0275,-3.0199,-3.0341,-3.0346,-3.0351,-3.0422,-3.0434,-3.0444,0,0,0,0,0,-3.0212,-3.0266,-3.0246,-3.0251,-3.0267,-3.0292,-3.0294,-3.0267,-3.0234,-3.0258,-3.0246,-3.0213,-3.0268,-3.0237,-3.0243,-3.0281,-3.0338,-3.0344,-3.035,-3.0417,-3.0431,-3.0444,0,0,0,0,0,0,-3.0283,-3.0264,-3.0242,-3.0294,-3.0295,-3.0281,-3.0311,-3.0284,-3.0295,-3.0288,-3.0254,-3.0253,-3.0299,-3.0294,-3.026,-3.0344,-3.0297,-3.0305,-3.0346,-3.036,-3.0371,-3.0371,-3.0201,0,0,0,0,0,-3.0305,-3.0327,-3.0309,-3.0357,-3.0359,-3.0335,-3.0345,-3.0324,-3.0324,-3.0324,-3.0315,-3.0317,-3.0334,-3.0347,-3.0362,-3.0421,-3.0418,-3.045,-3.0461,-3.0471,-3.0477,-3.0507,-3.0521,-3.0374,-3.0374,-3.0374,0,0,-3.035,-3.0342,-3.0358,-3.0371,-3.0369,-3.0393,-3.0336,-3.0364,-3.0381,-3.0329,-3.0366,-3.036,-3.036,-3.041,-3.0431,-3.0407,-3.0518,-3.0478,-3.0486,-3.0488,-3.0515,-3.0529,-3.0542,-3.0378,-3.0377,-3.0377,0,0,-3.0444,-3.0441,-3.0479,-3.0479,-3.0477,-3.0461,-3.0471,-3.0461,-3.0454,-3.0492,-3.0453,-3.0473,-3.0505,-3.0506,-3.051,-3.0605,-3.0574,-3.0611,-3.0669,-3.0699,-3.0711,-3.0721,-3.0754,-3.0766,-3.0618,-3.0618,-3.0618,0,-3.05,-3.0534,-3.0503,-3.0533,-3.054,-3.0493,-3.0532,-3.0534,-3.0538,-3.0543,-3.0516,-3.0554,-3.0551,-3.06,-3.0623,-3.0629,-3.0638,-3.0611,-3.0712,-3.0721,-3.073,-3.0761,-3.0774,-3.0622,-3.0622,-3.0621,-3.0621,0,-3.0603,-3.0627,-3.0658,-3.0662,-3.0673,-3.0707,-3.0682,-3.0696,-3.0674,-3.0661,-3.07,-3.0694,-3.0707,-3.0717,-3.0697,-3.0764,-3.0749,-3.0717,-3.0669,-3.0749,-3.0778,-3.079,-3.0629,-3.0627,-3.0626,-3.0625,0,0,-3.0741,-3.0727,-3.074,-3.074,-3.0735,-3.0753,-3.0786,-3.0798,-3.081,-3.0815,-3.0841,-3.0869,-3.0839,-3.0845,-3.0823,-3.085,-3.0924,-3.0815,-3.0814,-3.0835,-3.0997,-3.102,-3.1035,-3.0904,-3.0906,-3.0908,-3.0997,0,-3.0831,-3.0885,-3.0858,-3.0916,-3.0937,-3.0894,-3.0922,-3.0922,-3.0911,-3.0927,-3.0915,-3.0935,-3.0895,-3.0898,-3.0922,-3.091,-3.0956,-3.0903,-3.0928,-3.0929,-3.0929,-3.105,-3.1074,-3.1158,-3.1008,-3.101,-3.1011,0,-3.0943,-3.0952,-3.1011,-3.1001,-3.1009,-3.1035,-3.1044,-3.106,-3.106,-3.1049,-3.1056,-3.1028,-3.1059,-3.1012,-3.1055,-3.1019,-3.1028,-3.1024,-3.1026,-3.1027,-3.0975,-3.1053,-3.1185,-3.1197,-3.1029,-3.1027,-3.1026,0,-3.1037,-3.1063,-3.1102,-3.1104,-3.1094,-3.1113,-3.111,-3.1106,-3.1115,-3.1123,-3.1129,-3.1141,-3.1147,-3.1157,-3.1134,-3.1102,-3.1179,-3.113,-3.1171,-3.1172,-3.1189,-3.1188,-3.1323,-3.1196,-3.1196,-3.1196,-3.1196,0,-3.114,-3.1178,-3.1144,-3.1168,-3.1209,-3.1178,-3.122,-3.1212,-3.1209,-3.123,-3.1194,-3.1215,-3.1183,-3.1201,-3.1183,-3.1221,-3.1224,-3.1217,-3.1211,-3.122,-3.1221,-3.1224,-3.1217,-3.1199,-3.1198,-3.1198,-3.1197,0,-3.1252,-3.1231,-3.127,-3.1257,-3.1254,-3.1285,-3.1274,-3.1295,-3.1282,-3.1309,-3.1314,-3.1293,-3.1312,-3.129,-3.1307,-3.1295,-3.1346,-3.1332,-3.1346,-3.1342,-3.1384,-3.138,-3.1525,-3.1543,-3.1406,-3.1407,-3.1408,0,-3.1319,-3.1347,-3.1336,-3.1348,-3.1346,-3.1366,-3.1374,-3.1346,-3.1356,-3.1357,-3.1379,-3.1395,-3.1406,-3.1439,-3.1425,-3.1438,-3.1424,-3.1474,-3.1426,-3.1433,-3.1424,-3.1422,-3.1424,-3.1484,-3.1485,-3.1487,-3.1488,0,-3.1439,-3.1427,-3.1441,-3.1451,-3.1462,-3.1469,-3.1473,-3.1485,-3.1454,-3.1468,-3.1487,-3.1496,-3.1514,-3.153,-3.1539,-3.1536,-3.1507,-3.1503,-3.1513,-3.1521,-3.1528,-3.1524,-3.1372,-3.15,-3.1499,-3.1498,-3.1497,-3.1497,-3.153,-3.1552,-3.1548,-3.1565,-3.1564,-3.1569,-3.1588,-3.1577,-3.1592,-3.1603,-3.1586,-3.1609,-3.1607,-3.1617,-3.1617,-3.1635,-3.1613,-3.1628,-3.1632,-3.1636,-3.1642,-3.1526,-3.1637,-3.1636,-3.1636,-3.1636,-3.1635,0,-3.1647,-3.1642,-3.1658,-3.1664,-3.1677,-3.1649,-3.1652,-3.1664,-3.1685,-3.1686,-3.1697,-3.1719,-3.1735,-3.1722,-3.1735,-3.1752,-3.1739,-3.1756,-3.1754,-3.1754,-3.1661,-3.165,-3.1766,-3.1766,-3.1766,-3.1766,-3.1766,-3.1766,-3.171,-3.1746,-3.1734,-3.177,-3.1765,-3.1787,-3.1791,-3.1795,-3.1795,-3.182,-3.1833,-3.1825,-3.182,-3.1832,-3.1845,-3.1841,-3.1847,-3.1869,-3.186,-3.1773,-3.176,-3.1748,-3.1738,-3.1871,-3.1871,-3.1952,-3.1952,-3.1953]},{"header":{"parameterUnit":"m.s-1","parameterCategory":1,"la1":30.2991,"la2":30.254,"lo1":-89.0895,"lo2":-89.0444,"dy":0.0017,"dx":0.0017,"nx":28,"ny":28,"refTime":"2025-12-02T03:00:00:Z","depth":0,"parameterNumber":3,"parameterNumberName":"V-component_of_WINDS"},"data":[0,0,0,0,0,0,0,0,0,0,0,0,0,0,0,0,0,0,0,0,0,0,0,0,0,0,0,0,0,0,0,0,0,0,0,0,0,0,0,0,0,0,0,0,0,0,0,0,0,0,0,0,0,0,0,0,0,0,-1.488,-1.488,0,-1.49,-1.49,-1.49,-1.4884,-1.4883,-1.4882,-1.4881,-1.4901,-1.4903,-1.4904,0,0,0,0,0,0,0,0,0,0,0,0,0,-1.4826,-1.4827,-1.488,-1.488,-1.488,-1.49,-1.49,-1.4901,-1.4884,-1.4883,-1.4882,-1.4881,-1.4901,-1.4902,-1.4904,0,0,0,0,0,0,0,0,0,0,0,0,0,-1.4848,-1.4827,-1.488,-1.4874,-1.4874,-1.49,-1.49,-1.4901,-1.4884,-1.4883,-1.4882,-1.4881,-1.4901,-1.4902,-1.4904,-1.4936,0,0,-1.4909,-1.491,0,0,0,0,0,0,0,0,-1.4847,-1.485,-1.4875,-1.4875,-1.4875,-1.4888,-1.4888,-1.4912,-1.4884,-1.488,-1.4881,-1.488,-1.4898,-1.49,-1.4906,-1.4937,-1.4938,-1.491,-1.4911,-1.4911,-1.4912,0,0,0,0,0,0,0,-1.4845,-1.4849,-1.4888,-1.4875,-1.4875,-1.487,-1.4872,-1.4893,-1.4895,-1.488,-1.4879,-1.4882,-1.4897,-1.4904,-1.4906,-1.4938,-1.491,-1.4911,-1.4912,-1.4913,-1.4995,-1.4996,0,0,0,0,0,0,-1.4844,-1.4848,-1.4887,-1.4888,-1.4858,-1.4872,-1.4874,-1.4885,-1.4894,-1.4895,-1.4883,-1.4881,-1.4902,-1.4904,-1.4907,-1.4944,-1.4911,-1.4913,-1.4914,-1.4994,-1.4996,-1.4997,0,0,0,0,0,0,-1.4843,-1.4848,-1.4886,-1.4868,-1.4872,-1.4874,-1.4886,-1.4886,-1.4892,-1.4896,-1.4896,-1.4889,-1.4901,-1.4904,-1.4929,-1.4945,-1.4914,-1.4916,-1.4993,-1.4995,-1.4996,-1.502,0,0,0,0,0,0,-1.4842,-1.4848,-1.486,-1.4868,-1.4873,-1.4909,-1.4887,-1.4887,-1.4896,-1.4894,-1.4902,-1.4903,-1.49,-1.4926,-1.493,-1.4947,-1.4917,-1.4991,-1.4994,-1.4996,-1.5018,-1.5022,-1.5026,0,0,0,0,0,-1.484,-1.4866,-1.4861,-1.4866,-1.4889,-1.491,-1.4912,-1.4909,-1.4897,-1.4909,-1.4912,-1.4902,-1.4942,-1.4929,-1.4933,-1.495,-1.499,-1.4993,-1.4995,-1.5016,-1.5021,-1.5026,0,0,0,0,0,0,-1.486,-1.4867,-1.4862,-1.4892,-1.49,-1.4907,-1.4922,-1.4915,-1.4927,-1.4925,-1.492,-1.4922,-1.4948,-1.4952,-1.4936,-1.4981,-1.4964,-1.4968,-1.4978,-1.4983,-1.4987,-1.4986,-1.4918,0,0,0,0,0,-1.4868,-1.4885,-1.489,-1.4916,-1.492,-1.492,-1.4929,-1.4926,-1.4934,-1.4938,-1.4942,-1.495,-1.4964,-1.4974,-1.4987,-1.5018,-1.5019,-1.5032,-1.5036,-1.5039,-1.5043,-1.5058,-1.5063,-1.5005,-1.5005,-1.5005,0,0,-1.4885,-1.4891,-1.4902,-1.492,-1.4926,-1.4942,-1.4924,-1.4942,-1.4954,-1.4941,-1.4964,-1.4967,-1.4976,-1.5003,-1.5015,-1.5007,-1.5059,-1.5043,-1.5045,-1.5047,-1.5061,-1.5067,-1.5072,-1.5007,-1.5006,-1.5006,0,0,-1.4924,-1.493,-1.4952,-1.4959,-1.4968,-1.4968,-1.4973,-1.4981,-1.4982,-1.5005,-1.4996,-1.5009,-1.5034,-1.5041,-1.5047,-1.5087,-1.5079,-1.5092,-1.5113,-1.5129,-1.5133,-1.5137,-1.5151,-1.5156,-1.5095,-1.5095,-1.5095,0,-1.4944,-1.4969,-1.4964,-1.4983,-1.4991,-1.498,-1.5001,-1.5008,-1.5021,-1.5026,-1.5017,-1.5047,-1.5052,-1.5081,-1.509,-1.5096,-1.5101,-1.5091,-1.5133,-1.5137,-1.5141,-1.5154,-1.5159,-1.5096,-1.5096,-1.5096,-1.5096,0,-1.4992,-1.5009,-1.5025,-1.5038,-1.5048,-1.5068,-1.5067,-1.5077,-1.5072,-1.5073,-1.5096,-1.5102,-1.5116,-1.5122,-1.5118,-1.5149,-1.5144,-1.5134,-1.5116,-1.5148,-1.516,-1.5165,-1.5098,-1.5098,-1.5097,-1.5097,0,0,-1.5045,-1.5055,-1.5061,-1.5066,-1.5075,-1.5088,-1.5107,-1.5121,-1.5129,-1.5139,-1.5154,-1.5175,-1.5165,-1.5173,-1.5169,-1.5182,-1.5213,-1.517,-1.517,-1.5178,-1.5247,-1.5254,-1.526,-1.5207,-1.5208,-1.5209,-1.5246,0,-1.5084,-1.5118,-1.5114,-1.5146,-1.5161,-1.515,-1.5166,-1.5173,-1.5174,-1.5186,-1.5187,-1.5202,-1.5188,-1.5192,-1.5205,-1.5206,-1.5226,-1.5204,-1.5221,-1.5222,-1.5219,-1.5267,-1.5275,-1.531,-1.5251,-1.5251,-1.5252,0,-1.5135,-1.5145,-1.5179,-1.5184,-1.519,-1.5206,-1.5217,-1.5229,-1.5237,-1.5236,-1.5244,-1.5238,-1.5256,-1.5238,-1.5263,-1.5247,-1.5254,-1.5256,-1.5257,-1.5259,-1.5239,-1.5269,-1.5321,-1.5326,-1.526,-1.5259,-1.5258,0,-1.517,-1.5192,-1.5215,-1.522,-1.5227,-1.5238,-1.5241,-1.5248,-1.5256,-1.5265,-1.527,-1.5282,-1.5289,-1.5298,-1.5295,-1.5282,-1.532,-1.5302,-1.532,-1.532,-1.5328,-1.5328,-1.5382,-1.5333,-1.5333,-1.5333,-1.5333,0,-1.5213,-1.5234,-1.5231,-1.5245,-1.5267,-1.5262,-1.5284,-1.5286,-1.5292,-1.5305,-1.5296,-1.5309,-1.5304,-1.5316,-1.5314,-1.5334,-1.5337,-1.5337,-1.5336,-1.5338,-1.5338,-1.5342,-1.534,-1.5334,-1.5334,-1.5333,-1.5333,0,-1.5257,-1.5255,-1.5279,-1.5284,-1.5285,-1.5302,-1.5305,-1.5318,-1.5318,-1.5335,-1.5339,-1.5338,-1.5352,-1.5349,-1.5365,-1.5363,-1.5389,-1.5385,-1.5387,-1.5386,-1.5403,-1.5401,-1.5462,-1.5469,-1.5416,-1.5416,-1.5417,0,-1.5285,-1.53,-1.5306,-1.5315,-1.5319,-1.5333,-1.5341,-1.5336,-1.5345,-1.5353,-1.5365,-1.5378,-1.5388,-1.5411,-1.5412,-1.5423,-1.5419,-1.544,-1.5421,-1.5422,-1.5419,-1.5418,-1.5419,-1.5443,-1.5444,-1.5444,-1.5445,0,-1.5335,-1.5333,-1.5345,-1.5356,-1.5366,-1.5375,-1.5382,-1.539,-1.5385,-1.5395,-1.541,-1.5417,-1.5433,-1.5446,-1.5456,-1.5459,-1.5451,-1.545,-1.5455,-1.5457,-1.5457,-1.5457,-1.5396,-1.5449,-1.5449,-1.5448,-1.5448,-1.5448,-1.5371,-1.5384,-1.539,-1.5403,-1.5408,-1.5416,-1.5427,-1.5428,-1.544,-1.5452,-1.5449,-1.5464,-1.547,-1.5483,-1.5488,-1.5499,-1.5492,-1.5499,-1.55,-1.5502,-1.5504,-1.5455,-1.5501,-1.5501,-1.5501,-1.5501,-1.5501,0,-1.542,-1.5423,-1.5435,-1.5446,-1.5456,-1.5448,-1.5455,-1.5464,-1.5479,-1.5485,-1.5495,-1.551,-1.5522,-1.5524,-1.5535,-1.5544,-1.5541,-1.5547,-1.5547,-1.5547,-1.551,-1.5505,-1.555,-1.555,-1.555,-1.555,-1.555,-1.555,-1.5446,-1.5468,-1.5466,-1.549,-1.5492,-1.5508,-1.5513,-1.5519,-1.5524,-1.5542,-1.5552,-1.5553,-1.5557,-1.5568,-1.5579,-1.5578,-1.5583,-1.5591,-1.559,-1.5555,-1.555,-1.5545,-1.554,-1.5592,-1.5592,-1.5625,-1.5626,-1.5626]}]]